Find Gao Fen 3-02

NORAD ID: 49495 Int'l Des: 2021-109 Owner: GWHYZ Country: CN operational
LEOCIRCULARRETROGRADESSO

Live-Position

3D-Globus wird geladen...

Über Gao Fen 3-02

Beschreibung wird geladen...

Nächste Überflüge

Passes for default location (London). Set your location on the main map for personalized predictions.

Höhenverlauf

Loading altitude history...

Zweizeiliger Elementsatz

1 49495U 21109A 26104.22111686 -.00000041 00000-0 66177-6 0 9993
2 49495 98.4121 113.2212 0002790 154.4325 205.7003 14.42214858231093
Epoch: 14. Apr. 2026 • Age: 6 hours

Aktueller Status

Höhe 763.3 km
Geschwindigkeit 7.47 km/s
Subsatellitenpunkt -34.68°S, 84.45°W
Startdatum 22. Nov. 2021
Alter 4.3 years
Typ other

Technische Details

Klassifizierung Payload
Masse 2779.00 kg
Trockenmasse 2500.00 kg
Gesamtmasse 2779.00 kg
Länge 2.00 m
Durchmesser 2.00 m
Spannweite 8.00 m
Form Box + 3 Pan
Hersteller CAST
Bus-Typ CS-L3000B
Phasenstatus In Orbit
Besitzer/Staat GWHYZ/CN

Most Searched